Regional Weather Roundup
Issued by NWS

Home | Current Version | Previous Version | Graphics & Text | Print | Product List | Glossary Off
Versions: 1 2 3 4 5 6 7 8 9 10 11 12 13 14 15 16 17 18 19 20 21 22 23 24 25 26 27 28 29 30 31 32 33 34 35 36 37 38 39 40 41 42 43 44 45 46 47 48 49 50

000
ASUS43 KTOP 230608
RWRKS

WEATHER ROUNDUP FOR KANSAS
NATIONAL WEATHER SERVICE GOODLAND KS
100 AM CDT FRI JUN 23 2017

NOTE:  "FAIR" INDICATES FEW OR NO CLOUDS BELOW 12,000 FEET WITH NO
SIGNIFICANT WEATHER AND/OR OBSTRUCTIONS TO VISIBILITY.

KSZ001>006-013>018-027>032-041>047-230700-
NORTHWEST KANSAS

CITY           SKY/WX    TMP DP  RH WIND       PRES   REMARKS
GOODLAND       CLOUDY    67  57  70 NE13      29.98R
6HR MIN TEMP:  67; 6HR MAX TEMP:  83;

HAYS           CLOUDY    69  65  86 SW8       29.88R
HILL CITY      CLOUDY    73  61  65 NE9       29.92R
6HR MIN TEMP:  73; 6HR MAX TEMP:  94;

RUSSELL        CLOUDY    71  66  84 N12       29.82S
6HR MIN TEMP:  70; 6HR MAX TEMP: 100; 6HR PCP:  0.01;

$$

KSZ061>065-074>080-084>089-230700-
SOUTHWEST KANSAS

CITY           SKY/WX    TMP DP  RH WIND       PRES   REMARKS
DODGE CITY     CLOUDY    70  62  76 N3        29.84R
6HR MIN TEMP:  68; 6HR MAX TEMP:  91; 6HR PCP:  0.25;

ELKHART          N/A     71  56  59 NE2         N/A
GARDEN CITY    CLOUDY    69  62  78 NE15      29.87R
6HR MIN TEMP:  68; 6HR MAX TEMP:  86; 6HR PCP:  0.04;

GREAT BEND     LGT RAIN  73  61  65 N22       29.78F
LIBERAL        CLOUDY    71  62  73 N10       29.86R
PRATT          CLOUDY    80  51  35 NW22G32   29.73F
6HR MIN TEMP:  76; 6HR MAX TEMP:  91;

$$

KSZ066>073-081>083-090>101-230700-
SOUTHEAST KANSAS

CITY           SKY/WX    TMP DP  RH WIND       PRES   REMARKS
CHANUTE        CLEAR     73  70  90 S6        29.73R
6HR MIN TEMP:  72; 6HR MAX TEMP:  86;

COFFEYVILLE    CLEAR     73  72  96 CALM      29.72R
6HR MIN TEMP:  73; 6HR MAX TEMP:  86;

HUTCHINSON     MOCLDY    81  57  43 NW16      29.76F
6HR MIN TEMP:  78; 6HR MAX TEMP:  94;

MEDICINE LODGE   N/A     80  64  58 SE6       29.76F
NEWTON         CLOUDY    79  70  74 W18G24    29.79R
PARSONS        CLEAR     71  69  93 CALM      29.74R
6HR MIN TEMP:  71; 6HR MAX TEMP:  86;

WICHITA INTL   CLOUDY    77  72  84 W9        29.77R
6HR MIN TEMP:  75; 6HR MAX TEMP:  88;

WICHITA JABRA  PTCLDY    79  72  79 SW10      29.76R
6HR MIN TEMP:  77; 6HR MAX TEMP:  87;

WICHITA MCCONL PTCLDY    78  71  80 W8        29.77R
WINFIELD       PTCLDY    74  71  91 S5        29.76R
6HR MIN TEMP:  74; 6HR MAX TEMP:  87;

$$

KSZ007>012-019>026-033>040-048>060-102>105-230700-
NORTHEAST KANSAS

CITY           SKY/WX    TMP DP  RH WIND       PRES   REMARKS
CONCORDIA      CLOUDY    75  66  73 N17G25    29.78R
6HR MIN TEMP:  75; 6HR MAX TEMP:  95;

EMPORIA        CLEAR     75  73  93 S8        29.73R
6HR MIN TEMP:  75; 6HR MAX TEMP:  85;

LAWRENCE       PTCLDY    75  74  96 CALM      29.72R
6HR MIN TEMP:  75; 6HR MAX TEMP:  86;

MANHATTAN      CLOUDY    80  71  74 N3        29.72R
6HR MIN TEMP:  80; 6HR MAX TEMP:  92;

MARYSVILLE     PTCLDY    77  70  78 NW9       29.75R
OLATHE IND     CLEAR     75  72  90 CALM      29.74R
6HR MIN TEMP:  75; 6HR MAX TEMP:  85;

OLATHE EXE     CLEAR     74  74 100 S3        29.73R
6HR MIN TEMP:  74; 6HR MAX TEMP:  83;

SALINA         CLOUDY    83  67  58 W33G44    29.73R
6HR MIN TEMP:  83; 6HR MAX TEMP:  97;

TOPEKA BILLARD PTCLDY    77  74  90 E5        29.72R
6HR MIN TEMP:  77; 6HR MAX TEMP:  88;

TOPEKA FORBES  PTCLDY    77  72  84 E5        29.73R
6HR MIN TEMP:  77; 6HR MAX TEMP:  88;

$$




USA.gov is the U.S. government's official web portal to all federal, state and local government web resources and services.